TimeMDT,TemperatureF,Dew PointF,Humidity,Sea Level PressureIn,VisibilityMPH,Wind Direction,Wind SpeedMPH,Gust SpeedMPH,PrecipitationIn,Events,Conditions,WindDirDegrees,DateUTC
12:58 AM,65.7,18.7,17,29.79,10.0,South,16.1,-,N/A,,Partly Cloudy,190,2013-05-06 06:58:00
2:58 AM,64.9,19.4,17,29.77,10.0,South,13.8,-,N/A,,Partly Cloudy,190,2013-05-06 08:58:00
3:58 AM,63.1,20.5,19,29.80,10.0,WSW,13.8,-,N/A,,Scattered Clouds,240,2013-05-06 09:58:00
4:58 AM,63.5,22.1,21,29.77,10.0,South,11.5,-,N/A,,Scattered Clouds,180,2013-05-06 10:58:00
5:58 AM,61.5,20.3,20,29.79,10.0,SW,4.6,-,N/A,,Clear,220,2013-05-06 11:58:00
7:58 AM,63.7,24.4,22,29.88,10.0,South,5.8,-,N/A,,Clear,180,2013-05-06 13:58:00
8:58 AM,66.4,25.7,22,29.89,10.0,West,2.3,-,N/A,,Clear,260,2013-05-06 14:58:00
9:58 AM,68.4,36.1,31,29.88,10.0,West,6.9,-,N/A,,Clear,270,2013-05-06 15:58:00
10:55 AM,71.6,33.8,25,30.06,10.0,SW,8.1,21.9,N/A,,Clear,230,2013-05-06 16:55:00
11:55 AM,73.4,33.8,23,30.04,10.0,WNW,11.5,17.3,N/A,,Partly Cloudy,290,2013-05-06 17:55:00
12:58 PM,74.3,33.4,22,29.84,10.0,West,18.4,23.0,N/A,,Partly Cloudy,260,2013-05-06 18:58:00
1:28 PM,77.0,32.0,19,30.00,10.0,West,15.0,21.9,N/A,,Clear,260,2013-05-06 19:28:00
1:43 PM,77.0,32.0,19,30.00,10.0,SW,15.0,21.9,N/A,,Partly Cloudy,220,2013-05-06 19:43:00
1:52 PM,78.8,32.0,18,29.99,10.0,West,15.0,21.9,N/A,,Partly Cloudy,270,2013-05-06 19:52:00
1:53 PM,78.8,32.0,18,29.99,10.0,West,15.0,21.9,N/A,,Partly Cloudy,280,2013-05-06 19:53:00
1:57 PM,78.8,32.0,18,30.00,10.0,WSW,15.0,21.9,N/A,,Partly Cloudy,240,2013-05-06 19:57:00
1:58 PM,78.3,32.2,19,29.82,10.0,SW,16.1,23.0,N/A,,Partly Cloudy,230,2013-05-06 19:58:00
2:00 PM,77.0,32.0,19,29.99,10.0,SW,15.0,23.0,N/A,,Partly Cloudy,230,2013-05-06 20:00:00
2:06 PM,78.8,32.0,18,29.99,10.0,West,17.3,23.0,N/A,,Partly Cloudy,270,2013-05-06 20:06:00
2:55 PM,78.4,31.8,18,29.76,10.0,WNW,10.4,19.6,N/A,,Clear,290,2013-05-06 20:55:00
3:39 PM,78.8,32.0,18,29.97,10.0,SW,13.8,21.9,N/A,,Clear,230,2013-05-06 21:39:00
3:58 PM,77.2,30.9,18,29.78,10.0,West,11.5,16.1,N/A,,Partly Cloudy,260,2013-05-06 21:58:00
4:58 PM,78.1,30.4,17,29.77,10.0,WSW,12.7,17.3,N/A,,Clear,250,2013-05-06 22:58:00
5:58 PM,78.1,29.5,17,29.77,10.0,SW,11.5,-,N/A,,Clear,220,2013-05-06 23:58:00
6:58 PM,77.2,29.7,18,29.77,10.0,WSW,11.5,-,N/A,,Clear,240,2013-05-07 00:58:00
7:58 PM,73.2,29.1,20,29.79,10.0,WSW,6.9,-,N/A,,Clear,250,2013-05-07 01:58:00
8:58 PM,67.6,27.9,23,29.81,10.0,SW,10.4,-,N/A,,Clear,230,2013-05-07 02:58:00
9:58 PM,65.1,27.9,25,29.83,10.0,SW,9.2,-,N/A,,Clear,230,2013-05-07 03:58:00
10:58 PM,64.2,27.9,25,30.00,10.0,Calm,Calm,-,N/A,,Clear,0,2013-05-07 04:58:00
11:58 PM,57.7,24.3,28,29.84,10.0,Calm,Calm,-,N/A,,Clear,0,2013-05-07 05:58:00